User: anonymous   Login
Location: STAR School
(35.3054°N, 111.2976°W)
Time: 22:48:07
(UTC-07:00)
Language:

PCSat - Orbit

View from above orbital plane
View from above orbital plane
View from above satellite
View from above satellite

Ground track
Ground track

The orbit data is extracted from the following two-line orbital elements,

1 26931U 01043C   20225.44878398 -.00000037  00000-0  17430-4 0  9991
2 26931  67.0529 357.8915 0006089 274.8202  85.2204 14.30584249985157
Epoch (UTC): 12 August 2020 10:46:14
Eccentricity: 0.0006089
inclination: 67.0529°
perigee height: 785 km
apogee height: 794 km
right ascension of ascending node: 357.8915°
argument of perigee: 274.8202°
revolutions per day: 14.30584249
mean anomaly at epoch: 85.2204°
orbit number at epoch: 98515

The dashed part of the orbit path shows where the satellite is in the earth's shadow,  

DLR